Tracking 19638 objects as of 21-Apr-2019
HD Live streaming from Space Station
objects crossing your sky now

COSMOS 2195

Track COSMOS 2195 now!
10-day predictions
COSMOS 2195 is classified as:


NORAD ID: 22006
Int'l Code: 1992-036A
Perigee: 961.8 km
Apogee: 1,016.3 km
Inclination: 82.9 °
Period: 104.7 minutes
Semi major axis: 7360 km
RCS: 2.4537 m2 (large)
Launch date: July 1, 1992
Source: Commonwealth of Independent States (former USSR) (CIS)
Launch site: PLESETSK MISSILE AND SPACE COMPLEX (PKMTR)
aabbcc
Your satellite tracking list
Your tracking list is empty




NASA's NSSDC Master Catalog

Two Line Element Set (TLE):
1 22006U 92036A   19110.74686130 +.00000034 +00000-0 +19339-4 0  9993
2 22006 082.9376 197.2400 0037067 009.0564 101.1078 13.74936716344845
Source of the keplerian elements: AFSPC